�������l�o���
Date,Time,MP-1(��Sv/h),MP-2(��Sv/h),MP-3(��Sv/h),MP-4(��Sv/h),MP-5(��Sv/h),MP-6(��Sv/h),MP-7(��Sv/h),����,����(m/s),���J
2015/07/23,00:00,0.495,0.291,0.522,0.479,0.465,0.233,0.203,�k,1.2,��
2015/07/23,00:10,0.492,0.290,0.520,0.476,0.462,0.234,0.204,�k,1.3,��
2015/07/23,00:20,0.498,0.291,0.516,0.470,0.458,0.233,0.202,�k��,0.7,��
2015/07/23,00:30,0.496,0.292,0.524,0.475,0.465,0.231,0.203,�k��,0.9,��
2015/07/23,00:40,0.492,0.289,0.522,0.478,0.463,0.233,0.203,-,CALM,��
2015/07/23,00:50,0.493,0.289,0.517,0.474,0.457,0.234,0.203,�쐼,0.5,��
2015/07/23,01:00,0.497,0.291,0.516,0.470,0.460,0.233,0.203,-,CALM,��
2015/07/23,01:10,0.494,0.290,0.522,0.477,0.465,0.234,0.204,-,CALM,��
2015/07/23,01:20,0.491,0.289,0.519,0.477,0.463,0.232,0.203,-,CALM,��
2015/07/23,01:30,0.498,0.292,0.514,0.474,0.459,0.233,0.203,�k,0.6,��
2015/07/23,01:40,0.497,0.291,0.521,0.471,0.465,0.234,0.204,�k,0.9,��
2015/07/23,01:50,0.491,0.289,0.523,0.480,0.465,0.233,0.204,�k��,1.4,��
2015/07/23,02:00,0.497,0.293,0.516,0.475,0.460,0.234,0.203,��,1.2,��
2015/07/23,02:10,0.496,0.291,0.518,0.471,0.462,0.234,0.204,-,CALM,��
2015/07/23,02:20,0.494,0.288,0.525,0.477,0.467,0.234,0.203,��쐼,0.9,��
2015/07/23,02:30,0.494,0.292,0.520,0.475,0.462,0.233,0.204,��쓌,0.7,��
2015/07/23,02:40,0.498,0.292,0.515,0.471,0.460,0.234,0.204,-,CALM,��
2015/07/23,02:50,0.496,0.289,0.521,0.474,0.468,0.233,0.202,-,CALM,��
2015/07/23,03:00,0.491,0.291,0.523,0.477,0.463,0.233,0.204,�k,1.2,��
2015/07/23,03:10,0.499,0.292,0.516,0.473,0.460,0.234,0.204,�k,1.2,��
2015/07/23,03:20,0.497,0.288,0.518,0.472,0.459,0.233,0.202,�k�k��,0.7,��
2015/07/23,03:30,0.492,0.291,0.524,0.479,0.466,0.234,0.204,-,CALM,��
2015/07/23,03:40,0.499,0.292,0.519,0.474,0.460,0.234,0.204,-,CALM,��
2015/07/23,03:50,0.500,0.291,0.514,0.469,0.458,0.233,0.202,-,CALM,��
2015/07/23,04:00,0.493,0.289,0.523,0.474,0.464,0.232,0.204,��,1.2,��
2015/07/23,04:10,0.493,0.293,0.521,0.477,0.464,0.234,0.204,��쐼,1.9,��
2015/07/23,04:20,0.497,0.291,0.515,0.472,0.460,0.233,0.202,�쐼,2.4,��
2015/07/23,04:30,0.495,0.287,0.517,0.469,0.460,0.233,0.203,�쐼,2.9,��
2015/07/23,04:40,0.492,0.292,0.522,0.477,0.466,0.233,0.204,�쐼,4.4,��
2015/07/23,04:50,0.497,0.290,0.518,0.474,0.461,0.234,0.202,�쐼,3.7,��
2015/07/23,05:00,0.497,0.288,0.516,0.470,0.458,0.233,0.203,�쐼,3.1,��
2015/07/23,05:10,0.492,0.291,0.517,0.473,0.464,0.233,0.204,�쐼,3.2,��
2015/07/23,05:20,0.493,0.291,0.520,0.476,0.465,0.234,0.201,��쐼,3.0,��
2015/07/23,05:30,0.497,0.290,0.516,0.473,0.461,0.233,0.203,��,3.1,��
2015/07/23,05:40,0.492,0.287,0.514,0.468,0.459,0.233,0.203,��쐼,3.1,��
2015/07/23,05:50,0.492,0.290,0.522,0.475,0.461,0.234,0.202,��쐼,2.3,��
2015/07/23,06:00,0.498,0.292,0.521,0.477,0.463,0.233,0.200,��쐼,1.4,��
2015/07/23,06:10,0.499,0.290,0.516,0.474,0.461,0.233,0.200,��,1.8,��
2015/07/23,06:20,0.494,0.288,0.514,0.469,0.463,0.234,0.200,��쐼,2.1,��
2015/07/23,06:30,0.491,0.288,0.515,0.469,0.461,0.233,0.201,��,2.6,��
2015/07/23,06:40,0.487,0.289,0.522,0.470,0.459,0.234,0.202,��쐼,2.6,��
2015/07/23,06:50,0.496,0.288,0.519,0.478,0.458,0.233,0.204,��쐼,3.1,��
2015/07/23,07:00,0.499,0.287,0.516,0.475,0.457,0.233,0.201,��쐼,3.3,��
2015/07/23,07:10,0.495,0.290,0.515,0.473,0.461,0.234,0.201,�쐼,4.4,��
2015/07/23,07:20,0.490,0.291,0.514,0.469,0.465,0.234,0.201,�쐼,4.2,�L
2015/07/23,07:30,0.487,0.291,0.520,0.469,0.463,0.233,0.201,�쐼,4.2,�L
2015/07/23,07:40,0.496,0.289,0.521,0.469,0.461,0.233,0.200,�쐼,3.6,�L
2015/07/23,07:50,0.497,0.289,0.520,0.475,0.460,0.233,0.203,�쐼,3.1,��
2015/07/23,08:00,0.495,0.288,0.517,0.476,0.459,0.233,0.203,�쐼,3.3,�L
2015/07/23,08:10,0.491,0.289,0.516,0.474,0.457,0.234,0.202,��쐼,2.3,�L
2015/07/23,08:20,0.491,0.288,0.516,0.471,0.459,0.234,0.203,��,2.0,�L
2015/07/23,08:30,0.491,0.287,0.518,0.471,0.460,0.235,0.201,��쐼,2.1,�L
2015/07/23,08:40,0.499,0.290,0.523,0.472,0.458,0.235,0.201,��쐼,2.7,�L
2015/07/23,08:50,0.499,0.292,0.520,0.471,0.467,0.235,0.201,��,2.4,��
2015/07/23,09:00,0.494,0.293,0.519,0.474,0.465,0.234,0.201,��,3.0,�L
2015/07/23,09:10,0.492,0.292,0.516,0.478,0.463,0.234,0.201,��쐼,4.0,�L
2015/07/23,09:20,0.492,0.291,0.515,0.475,0.463,0.234,0.202,��쐼,4.3,�L
2015/07/23,09:30,0.492,0.289,0.515,0.474,0.461,0.233,0.202,��,3.6,�L
2015/07/23,09:40,0.499,0.289,0.519,0.471,0.460,0.236,0.205,��쐼,3.7,�L
2015/07/23,09:50,0.498,0.289,0.522,0.470,0.459,0.236,0.203,��쐼,4.2,�L
2015/07/23,10:00,0.495,0.289,0.519,0.469,0.460,0.235,0.203,��쐼,4.2,�L
2015/07/23,10:10,0.493,0.290,0.519,0.474,0.459,0.234,0.202,��쐼,3.5,�L
2015/07/23,10:20,0.493,0.289,0.516,0.476,0.460,0.234,0.202,��,3.2,��
2015/07/23,10:30,0.490,0.289,0.516,0.477,0.461,0.234,0.202,��,2.7,��
2015/07/23,10:40,0.492,0.290,0.515,0.475,0.462,0.234,0.203,��,3.6,��
2015/07/23,10:50,0.493,0.290,0.516,0.473,0.462,0.234,0.203,��,4.1,��
2015/07/23,11:00,0.493,0.290,0.516,0.474,0.462,0.233,0.204,��쐼,4.7,��
2015/07/23,11:10,0.492,0.289,0.517,0.471,0.462,0.233,0.203,��쐼,3.7,��
2015/07/23,11:20,0.492,0.289,0.514,0.472,0.461,0.235,0.202,��쐼,4.1,��
2015/07/23,11:30,0.494,0.290,0.516,0.470,0.462,0.234,0.201,��쐼,4.7,��
2015/07/23,11:40,0.490,0.290,0.516,0.470,0.462,0.234,0.201,��쐼,4.7,��
2015/07/23,11:50,0.491,0.289,0.518,0.471,0.461,0.235,0.202,��쐼,3.1,��
2015/07/23,12:00,0.491,0.290,0.517,0.472,0.463,0.235,0.202,��쐼,3.7,��
2015/07/23,12:10,0.492,0.290,0.517,0.474,0.463,0.234,0.203,��쐼,2.7,��
2015/07/23,12:20,0.491,0.290,0.517,0.475,0.462,0.234,0.202,��,2.5,��
2015/07/23,12:30,0.490,0.290,0.519,0.475,0.463,0.234,0.202,��,1.0,��
2015/07/23,12:40,0.494,0.290,0.517,0.472,0.462,0.235,0.202,�쓌,1.4,�L
2015/07/23,12:50,0.499,0.289,0.516,0.471,0.460,0.232,0.204,�쓌,2.6,�L
2015/07/23,13:00,0.497,0.287,0.517,0.477,0.459,0.234,0.204,�쓌,3.6,�L
2015/07/23,13:10,0.492,0.292,0.521,0.481,0.465,0.235,0.203,��쓌,3.6,�L
2015/07/23,13:20,0.492,0.293,0.520,0.475,0.465,0.234,0.201,��쓌,2.8,�L
2015/07/23,13:30,0.499,0.290,0.517,0.472,0.462,0.234,0.204,�쓌,2.5,�L
2015/07/23,13:40,0.496,0.288,0.518,0.473,0.460,0.235,0.204,��쓌,2.2,��
2015/07/23,13:50,0.490,0.290,0.521,0.478,0.460,0.235,0.204,��쓌,1.9,��
2015/07/23,14:00,0.492,0.292,0.520,0.476,0.457,0.235,0.203,��쓌,1.9,��
2015/07/23,14:10,0.497,0.289,0.515,0.470,0.459,0.235,0.204,��쓌,2.2,��
2015/07/23,14:20,0.496,0.288,0.513,0.467,0.459,0.233,0.202,��쓌,2.5,��
2015/07/23,14:30,0.490,0.287,0.510,0.467,0.466,0.234,0.202,��쓌,2.3,��
2015/07/23,14:40,0.487,0.287,0.513,0.474,0.464,0.233,0.200,��쓌,2.2,��
2015/07/23,14:50,0.492,0.286,0.516,0.473,0.462,0.234,0.203,��쓌,1.9,��
2015/07/23,15:00,0.496,0.289,0.516,0.473,0.461,0.234,0.202,��쓌,2.3,��
2015/07/23,15:10,0.492,0.289,0.514,0.470,0.459,0.233,0.200,��,3.3,��
2015/07/23,15:20,0.489,0.289,0.511,0.468,0.459,0.232,0.199,��,3.2,��
2015/07/23,15:30,0.486,0.287,0.511,0.467,0.459,0.233,0.199,��,2.8,��
2015/07/23,15:40,0.493,0.285,0.509,0.471,0.458,0.234,0.202,��,3.2,��
2015/07/23,15:50,0.494,0.286,0.518,0.474,0.458,0.234,0.203,��,3.0,��
2015/07/23,16:00,0.493,0.286,0.516,0.474,0.458,0.233,0.201,��쐼,3.9,��
2015/07/23,16:10,0.489,0.290,0.515,0.472,0.460,0.233,0.201,��,2.8,��
2015/07/23,16:20,0.488,0.291,0.511,0.469,0.458,0.232,0.201,��,3.0,��
2015/07/23,16:30,0.495,0.289,0.512,0.470,0.459,0.233,0.203,��,3.2,��
2015/07/23,16:40,0.495,0.286,0.510,0.470,0.461,0.234,0.203,��,4.1,��
2015/07/23,16:50,0.493,0.285,0.513,0.476,0.461,0.233,0.201,��,3.8,��
2015/07/23,17:00,0.490,0.287,0.519,0.474,0.461,0.233,0.201,��쐼,3.9,��
2015/07/23,17:10,0.488,0.286,0.517,0.471,0.463,0.233,0.204,��,3.3,��
2015/07/23,17:20,0.489,0.291,0.515,0.470,0.463,0.235,0.204,��,2.2,��
2015/07/23,17:30,0.487,0.289,0.513,0.469,0.463,0.234,0.202,��,3.9,��
2015/07/23,17:40,0.488,0.289,0.511,0.476,0.462,0.233,0.200,��,4.1,��
2015/07/23,17:50,0.495,0.287,0.515,0.474,0.465,0.234,0.203,��,4.5,��
2015/07/23,18:00,0.495,0.285,0.517,0.471,0.461,0.233,0.203,��,4.3,��
2015/07/23,18:10,0.492,0.287,0.517,0.469,0.461,0.235,0.201,��,4.4,��
2015/07/23,18:20,0.488,0.291,0.512,0.471,0.460,0.234,0.203,��,3.7,��
2015/07/23,18:30,0.494,0.290,0.512,0.479,0.458,0.233,0.203,��,4.4,��
2015/07/23,18:40,0.497,0.287,0.514,0.477,0.457,0.233,0.201,��,4.2,��
2015/07/23,18:50,0.495,0.288,0.521,0.473,0.460,0.233,0.202,��,4.3,��
2015/07/23,19:00,0.488,0.292,0.517,0.469,0.466,0.234,0.203,��쐼,3.7,��
2015/07/23,19:10,0.495,0.289,0.515,0.477,0.464,0.232,0.201,���쐼,1.6,��
2015/07/23,19:20,0.495,0.287,0.516,0.478,0.460,0.234,0.202,���k��,2.0,��
2015/07/23,19:30,0.492,0.291,0.522,0.475,0.462,0.234,0.203,��,1.5,��
2015/07/23,19:40,0.491,0.288,0.516,0.470,0.465,0.232,0.201,�k�k��,1.7,��
2015/07/23,19:50,0.499,0.288,0.513,0.476,0.462,0.233,0.202,�k�k��,2.2,��
2015/07/23,20:00,0.491,0.289,0.518,0.476,0.457,0.234,0.202,�k�k��,3.2,��
2015/07/23,20:10,0.490,0.290,0.518,0.472,0.458,0.233,0.202,�k�k��,3.3,��
2015/07/23,20:20,0.496,0.287,0.516,0.470,0.465,0.233,0.201,�k�k��,2.5,��
2015/07/23,20:30,0.495,0.289,0.513,0.476,0.464,0.233,0.203,�k,2.1,��
2015/07/23,20:40,0.491,0.291,0.519,0.475,0.460,0.233,0.202,�k�k��,2.5,��
2015/07/23,20:50,0.491,0.287,0.516,0.470,0.458,0.231,0.202,�k��,2.8,��
2015/07/23,21:00,0.496,0.288,0.511,0.469,0.465,0.233,0.204,�k�k��,3.3,��
2015/07/23,21:10,0.494,0.290,0.514,0.478,0.466,0.234,0.203,�k��,2.9,��
2015/07/23,21:20,0.488,0.289,0.518,0.476,0.462,0.234,0.201,���k��,3.1,��
2015/07/23,21:30,0.497,0.286,0.517,0.469,0.458,0.233,0.201,���k��,3.1,��
2015/07/23,21:40,0.493,0.289,0.514,0.469,0.463,0.235,0.203,���k��,1.8,��
2015/07/23,21:50,0.491,0.290,0.516,0.477,0.469,0.235,0.202,�k��,0.7,��
2015/07/23,22:00,0.494,0.287,0.520,0.476,0.463,0.232,0.201,�k�k��,1.4,��
2015/07/23,22:10,0.497,0.289,0.515,0.470,0.459,0.233,0.203,�k��,2.2,��
2015/07/23,22:20,0.492,0.291,0.512,0.472,0.462,0.234,0.201,�k��,1.8,��
2015/07/23,22:30,0.490,0.288,0.519,0.476,0.464,0.232,0.202,�k�k��,1.9,��
2015/07/23,22:40,0.495,0.286,0.517,0.474,0.460,0.236,0.203,�k�k��,1.7,��
2015/07/23,22:50,0.493,0.290,0.514,0.469,0.459,0.233,0.202,-,CALM,��
2015/07/23,23:00,0.489,0.289,0.517,0.473,0.465,0.232,0.201,-,CALM,��
2015/07/23,23:10,0.498,0.287,0.521,0.478,0.465,0.233,0.202,���쓌,0.5,��
2015/07/23,23:20,0.496,0.289,0.517,0.474,0.461,0.234,0.204,-,CALM,��
2015/07/23,23:30,0.492,0.288,0.512,0.468,0.458,0.233,0.201,��,0.5,��
2015/07/23,23:40,0.492,0.288,0.520,0.476,0.465,0.233,0.203,���k��,1.1,��
2015/07/23,23:50,0.495,0.289,0.519,0.475,0.465,0.233,0.203,-,CALM,��
